Flag for U.S.A. Weather past 2 weeks in Mesquite, Texas, U.S.A.

Now
88 °F

Sunny.


Feels Like: 88 °F
Forecast: 75 / 98 °F
Wind: 5 mph from East

Location: Mesquite Metro Airport

Current Time: Aug 3, 2015 at 9:13:46 PM

Latest Report: Aug 3, 2015 at 8:55 PM


Visibility: 10 mi

Pressure: 29.88 "Hg

Humidity: 38%

Dew point: 60 °F

Location of MesquiteLocation

Historic Weather in Mesquite — Graph

°F

Mesquite temperature yesterday

Maximum temperature yesterday: 97 °F (at 3:50 PM)
Minimum temperature yesterday: 72 °F (at 6:50 AM)
Average temperature yesterday: 83 °F

Past Weeks' High & Low Weather Summary

 TemperatureHumidityPressure
High100 °F (Jul 30, 3:50 PM)94% (Jul 20, 5:35 AM)30.10 "Hg (Jul 20, 5:35 AM)
Low72 °F (Aug 2, 6:50 AM)20% (Aug 2, 5:50 PM)29.81 "Hg (Jul 21, 6:50 PM)
Average84 °F58%29.95 "Hg
* Reported Jul 19 7:50 PM — Aug 3 7:50 PM, Mesquite, Weather by CustomWeather, © 2015

Note: Actual official high and low records may vary slightly from our data, if they occured in-between our weather recording intervals... More about our weather records

Advertising

Mesquite weather history for previous 24 hours

 ConditionsComfort  
Time TempWeatherWind HumidityBarometerVisibility
7:50 PM
Mon, Aug 3
95 °FSunny.7 mph30%29.87 "Hg10 mi
6:50 PM97 °FSunny.9 mph27%29.86 "Hg10 mi
5:50 PM97 °FScattered clouds.5 mph25%29.87 "Hg10 mi
4:50 PM99 °FScattered clouds.8 mph25%29.88 "Hg10 mi
3:50 PM99 °FScattered clouds.No wind25%29.89 "Hg10 mi
2:50 PM97 °FSunny.No wind25%29.91 "Hg10 mi
1:50 PM97 °FSunny.10 mph27%29.92 "Hg10 mi
12:50 PM95 °FSunny.6 mph32%29.93 "Hg10 mi
11:50 AM93 °FSunny.3 mph36%29.94 "Hg10 mi
10:50 AM90 °FSunny.1 mph41%29.94 "Hg10 mi
9:50 AM86 °FSunny.3 mph49%29.94 "Hg10 mi
8:50 AM81 °FSunny.No wind58%29.94 "Hg10 mi
7:50 AM75 °FSunny.No wind65%29.93 "Hg10 mi
6:15 AM72 °FClear.No wind70%29.91 "Hg10 mi
5:55 AM73 °FClear.No wind67%29.90 "Hg10 mi
5:35 AM73 °FClear.No wind67%29.90 "Hg10 mi
5:15 AM73 °FClear.No wind68%29.89 "Hg10 mi
4:55 AM75 °FClear.No wind62%29.89 "Hg10 mi
4:35 AM74 °FClear.No wind64%29.89 "Hg10 mi
4:15 AM75 °FClear.No wind60%29.88 "Hg10 mi
3:55 AM75 °FClear.3 mph61%29.88 "Hg3 mi
3:35 AM75 °FClear.No wind62%29.88 "Hg10 mi
3:15 AM76 °FClear.No wind58%29.88 "Hg10 mi
2:55 AM76 °FClear.No wind57%29.88 "Hg10 mi
2:35 AM78 °FClear.No wind55%29.89 "Hg10 mi
2:15 AM78 °FClear.No wind52%29.89 "Hg10 mi
1:55 AM79 °FClear.5 mph52%29.89 "Hg10 mi
1:35 AM79 °FClear.5 mph50%29.89 "Hg10 mi
1:15 AM79 °FClear.3 mph50%29.89 "Hg10 mi
12:55 AM78 °FClear.No wind54%29.89 "Hg10 mi
12:35 AM79 °FClear.No wind50%29.89 "Hg10 mi
12:15 AM80 °FClear.No wind47%29.89 "Hg10 mi
11:55 PM
Sun, Aug 2
80 °FClear.No wind49%29.89 "Hg10 mi
11:15 PM82 °FClear.5 mph44%29.89 "Hg10 mi
10:55 PM82 °FClear.3 mph43%29.89 "Hg10 mi
10:35 PM82 °FClear.3 mph44%29.89 "Hg10 mi
10:15 PM83 °FClear.3 mph39%29.88 "Hg10 mi
9:55 PM83 °FClear.5 mph39%29.88 "Hg10 mi
9:35 PM84 °FClear.3 mph39%29.86 "Hg10 mi
9:15 PM85 °FSunny.3 mph34%29.86 "Hg10 mi
Weather by CustomWeather, © 2015

See weather overviewHow to use our weather pages